Regional Weather Roundup
Issued by NWS

Home | Current Version | Previous Version | Graphics & Text | Print | Product List | Glossary On
Versions: 1 2 3 4 5 6 7 8 9 10 11 12 13 14 15 16 17 18 19 20 21 22 23 24 25 26 27 28 29 30 31 32 33 34 35 36 37 38 39 40 41 42 43 44 45 46 47 48 49 50
000
ASUS43 KLMK 091610
RWRKY
KENTUCKY REGIONAL WEATHER ROUNDUP
NATIONAL WEATHER SERVICE LOUISVILLE KY
1200 PM EDT WED JUL 09 2014

NOTE "FAIR" INDICATES FEW OR NO CLOUDS BELOW 12,000 FEET
WITH NO SIGNIFICANT WEATHER AND/OR OBSTRUCTIONS TO VISIBILITY.

KYZ001>023-026-027-061>063-070>075-091700-
WESTERN AND SOUTH CENTRAL KENTUCKY

CITY           SKY/WX    TMP DP  RH WIND       PRES   REMARKS
PADUCAH        MOSUNNY   84  64  50 MISG      30.00F
HENDERSON      SUNNY     81  64  57 W7        30.00R
OWENSBORO      MOSUNNY   82  62  50 NW5       30.01S
HOPKINSVILLE   PTSUNNY   81  66  58 NW3       30.01F
BOWLING GREEN  SUNNY     82  64  54 VRB3      30.01S
GLASGOW        SUNNY     80  62  54 NW5       30.01S
$$

KYZ024-025-028>034-038-045-046-053-091700-
NORTH CENTRAL KENTUCKY

CITY           SKY/WX    TMP DP  RH WIND       PRES   REMARKS
LOUISVILLE/SDF PTSUNNY   83  60  45 SW14      29.98S
LOUISVILLE/LOU MOSUNNY   84  59  42 W10       29.99R
FORT KNOX      MOSUNNY   80  64  58 W10       29.99S
$$

KYZ035>037-039>044-047>052-055>060-089>105-091700-
NORTHEAST KENTUCKY

CITY           SKY/WX    TMP DP  RH WIND       PRES   REMARKS
LEXINGTON      MOSUNNY   81  61  50 W12       30.01R
COVINGTON      PTSUNNY   80  63  55 W9        29.98R
FRANKFORT      PTSUNNY   80  61  52 SW12      29.99S
$$

KYZ054-064>069-076>088-106>120-091700-
SOUTHEAST KENTUCKY

CITY           SKY/WX    TMP DP  RH WIND       PRES   REMARKS
JACKSON        PTSUNNY   76  69  79 CALM      30.03R
LONDON         PTSUNNY   78  67  68 W9        30.03S
SOMERSET       CLOUDY    77  64  65 W7        30.03S
MIDDLESBORO    CLOUDY    76  70  82 SW3       30.05S
MONTICELLO     PTSUNNY   79  71  76 VRB3      30.04S
$$



USA.gov is the U.S. government's official web portal to all federal, state and local government web resources and services.